SL-16 DEB, 22295

Orbit data source: Space-Track

SL-16 DEB, 22295 is space debris in LEO originally from a launch on Fri, 25 Dec 1992 UTC launched from the Tyuratam Missile And Space Complex (TTMTR). Debris objects in space refer to the collection of defunct objects orbiting the Earth. Examples of debris include non-operational satellites, rocket bodies, and fragments generated from explosions, collisions, or faulty payload assembly.

Loading next visibility...
Identifier
22295, 1992-093K
Orbit
LEO
Country
Flag of CISCIS
Related business
Manufacturer
Unknown
Mission
Spacecraft
Bus & Motor
Unknown
Mass
Unknown
Launch date (UTC)
1992-12-25 (33 years ago)
Launch vehicle
Unknown
Launch site
Tyuratam Missile And Space Complex (TTMTR)
Object type
Payload
Rocket body
Debris
Shape & HBR
Unknown shape, 0.5 m
Radar Cross Section
Medium (>0.1 m² and <1 m²)

Expand to show TLE details & history
Last TLE update: 9 hours ago

TLE from 9 hours ago
0 SL-16 DEB
1 22295U 92093K   26132.75031345 -.00000001  00000-0  25721-4 0  9998
2 22295  71.0058 238.3748 0095299 118.9850 316.8773 14.07071574712173
Epoch: 2026-05-12T18:00Z
TLE epoch observation values (Epoch: 2026-05-12T18:00:27.082Z)
Latitude
66.13748°
Longitude
148.45747°
Altitude
830.189 km
Speed
7.47 km/s
True Right ascension
19h 16m 21s
True Declination
66° 00' 41"
Sunlit
Object was in daylight at epoch
Visualization orbit readout
Latitude
Unknown
Longitude
Unknown
Altitude
Unknown
Speed
Unknown
Apparent Right ascension
Unknown
Apparent Declination
Unknown
Sunlit
N/A
Visualization observer readout
Local Sidereal Time
11:30:17
Azimuth
Unknown
Elevation
Unknown
Doppler factor
Unknown
Orbital elements
Apogee altitude
936.391 km
Perigee altitude
798.293 km
Semi-major axis
7,245.479 km
Eccentricity
0.00953
Inclination
71.0058°
RAAN
238.3748°
Arg. of periapsis
118.985°
True anomaly
316.12429°
Mean anomaly
316.8773°
Eccentric anomaly
316.50145°
Mean motion
3.51919 °/min
Orbital period
102.3 mins
BSTAR
0.000025721
Loading maneuver chart data...
Computing Atmospheric mass density...
Loading historical data...
Loading historical data...
Loading historical data...
Loading historical data...
Loading historical data...
Loading historical data...
Loading historical data...

Documentation

Showing up to 5 results
|